This is the latest recevied weather packets stored in our database for station/object OE6ACM-10. If no packets are shown the sender has not sent any weather packets the latest 10 day(s).
| Time | Temp. | Humidity | Pressure | Rain* | Wind** | Luminosity | Snow |
|---|---|---|---|---|---|---|---|
| 1788614989 | 28.33° C | 100% | 931.4 hPa | - | - | - | - |
| 1788614689 | 28.89° C | 100% | 931.5 hPa | - | - | - | - |
| 1788614389 | 29.44° C | 100% | 931.2 hPa | - | - | - | - |
| 1788614089 | 28.89° C | 100% | 931.2 hPa | - | - | - | - |
| 1788613789 | 28.33° C | 100% | 931.3 hPa | - | - | - | - |
| 1788613489 | 27.22° C | 100% | 931.4 hPa | - | - | - | - |
| 1788613189 | 27.78° C | 100% | 931.4 hPa | - | - | - | - |
| 1788612889 | 28.33° C | 100% | 931.4 hPa | - | - | - | - |
| 1788612589 | 28.89° C | 100% | 931.4 hPa | - | - | - | - |
| 1788612289 | 28.89° C | 100% | 931.4 hPa | - | - | - | - |
| 1788611989 | 27.78° C | 100% | 931.4 hPa | - | - | - | - |
| 1788611689 | 28.89° C | 100% | 931.4 hPa | - | - | - | - |
| 1788611389 | 28.89° C | 100% | 931.4 hPa | - | - | - | - |
| 1788611089 | 29.44° C | 100% | 931.3 hPa | - | - | - | - |
| 1788610822 | 28.89° C | 100% | 931.3 hPa | - | - | - | - |
| 1788610489 | 28.33° C | 100% | 931.5 hPa | - | - | - | - |
| 1788610189 | 28.89° C | 100% | 931.4 hPa | - | - | - | - |
| 1788609889 | 28.89° C | 100% | 931.6 hPa | - | - | - | - |
| 1788609589 | 28.33° C | 100% | 931.4 hPa | - | - | - | - |
| 1788609289 | 27.78° C | 100% | 931.3 hPa | - | - | - | - |
| 1788608989 | 27.22° C | 100% | 931.3 hPa | - | - | - | - |
| 1788608689 | 27.78° C | 100% | 931.4 hPa | - | - | - | - |
| 1788608389 | 27.22° C | 100% | 931.1 hPa | - | - | - | - |
| 1788608089 | 26.67° C | 100% | 931.1 hPa | - | - | - | - |
| 1788607789 | 25.56° C | 100% | 930.9 hPa | - | - | - | - |
* Rain since midnight (hover to see other rain measurements)
** Current wind speed in m/s (hover to see current wind gust speed)